[keps] orb09155.amsat
Ray Hoad
r.hoad at att.net
Thu Jun 4 20:07:49 PDT 2009
SB KEPS @ AMSAT $ORB09155.O
Orbital Elements 09155.OSCAR
HR AMSAT ORBITAL ELEMENTS FOR OSCAR SATELLITES
FROM WA5QGD FORT WORTH,TX June 4, 2009
Send Subscribe/unsubscribe to KEPS at
http://www.amsat.org/mailman/listinfo/keps
BID: ORB09155.O
TO ALL RADIO AMATEURS BT
Satellite: AO-07
Catalog number: 07530
Epoch time: 09154.60145735
Element set: 0495
Inclination: 101.4262 deg
RA of node: 179.7765 deg
Eccentricity: 0.0011526
Arg of perigee: 295.6466 deg
Mean anomaly: 064.3414 deg
Mean motion: 12.53575776 rev/day
Decay rate: -2.7e-07 rev/day^2
Epoch rev: 58101
Checksum: 307
Satellite: FO-29
Catalog number: 24278
Epoch time: 09155.57922177
Element set: 58
Inclination: 098.5554 deg
RA of node: 031.3090 deg
Eccentricity: 0.0350875
Arg of perigee: 023.2013 deg
Mean anomaly: 338.4577 deg
Mean motion: 13.52943628 rev/day
Decay rate: -2.8e-07 rev/day^2
Epoch rev: 63204
Checksum: 315
Satellite: SO-33
Catalog number: 25509
Epoch time: 09153.93609278
Element set: 0468
Inclination: 031.4325 deg
RA of node: 133.0751 deg
Eccentricity: 0.0354662
Arg of perigee: 213.9357 deg
Mean anomaly: 143.8106 deg
Mean motion: 14.28254611 rev/day
Decay rate: 1.02e-06 rev/day^2
Epoch rev: 55379
Checksum: 300
Satellite: RS-22
Catalog number: 27939
Epoch time: 09154.79633764
Element set: 0806
Inclination: 097.9464 deg
RA of node: 030.1526 deg
Eccentricity: 0.0013713
Arg of perigee: 170.2945 deg
Mean anomaly: 189.8518 deg
Mean motion: 14.63320039 rev/day
Decay rate: 4.6e-07 rev/day^2
Epoch rev: 30361
Checksum: 316
Satellite: VO-52
Catalog number: 28650
Epoch time: 09154.87989992
Element set: 0241
Inclination: 097.7431 deg
RA of node: 216.9009 deg
Eccentricity: 0.0028357
Arg of perigee: 073.8433 deg
Mean anomaly: 286.5901 deg
Mean motion: 14.81590878 rev/day
Decay rate: 3.54e-06 rev/day^2
Epoch rev: 22067
Checksum: 347
/EX
SB KEPS @ AMSAT $ORB09155.D
Orbital Elements 09155.MICROS
HR AMSAT ORBITAL ELEMENTS FOR THE MICROSATS
FROM WA5QGD FORT WORTH,TX June 4, 2009
Send Subscribe/unsubscribe to KEPS at
http://www.amsat.org/mailman/listinfo/keps
BID: ORB09155.D
TO ALL RADIO AMATEURS BT
Satellite: AO-16
Catalog number: 20439
Epoch time: 09154.92659306
Element set: 0620
Inclination: 098.2773 deg
RA of node: 123.9330 deg
Eccentricity: 0.0010338
Arg of perigee: 206.2051 deg
Mean anomaly: 153.8611 deg
Mean motion: 14.31825316 rev/day
Decay rate: 1.0e-08 rev/day^2
Epoch rev: 01125
Checksum: 261
Satellite: LO-19
Catalog number: 20442
Epoch time: 09154.91587116
Element set: 0540
Inclination: 098.2397 deg
RA of node: 131.2366 deg
Eccentricity: 0.0011468
Arg of perigee: 202.4013 deg
Mean anomaly: 157.6672 deg
Mean motion: 14.32061136 rev/day
Decay rate: 2.2e-07 rev/day^2
Epoch rev: 01141
Checksum: 263
Satellite: AO-27
Catalog number: 22825
Epoch time: 09154.91447579
Element set: 0260
Inclination: 098.4357 deg
RA of node: 108.7563 deg
Eccentricity: 0.0007594
Arg of perigee: 307.5779 deg
Mean anomaly: 052.4727 deg
Mean motion: 14.29266375 rev/day
Decay rate: -4.9e-07 rev/day^2
Epoch rev: 81801
Checksum: 345
Satellite: IO-26
Catalog number: 22826
Epoch time: 09153.78711509
Element set: 0984
Inclination: 098.4283 deg
RA of node: 108.4191 deg
Eccentricity: 0.0008201
Arg of perigee: 307.3481 deg
Mean anomaly: 052.6948 deg
Mean motion: 14.29518592 rev/day
Decay rate: 1.8e-07 rev/day^2
Epoch rev: 81795
Checksum: 330
Satellite: GO-32
Catalog number: 25397
Epoch time: 09154.71440132
Element set: 0910
Inclination: 098.3268 deg
RA of node: 177.7768 deg
Eccentricity: 0.0000317
Arg of perigee: 340.2258 deg
Mean anomaly: 019.8903 deg
Mean motion: 14.23159392 rev/day
Decay rate: -3.0e-08 rev/day^2
Epoch rev: 56621
Checksum: 301
Satellite: NO-44
Catalog number: 26931
Epoch time: 09154.85159991
Element set: 0184
Inclination: 067.0514 deg
RA of node: 098.6993 deg
Eccentricity: 0.0005502
Arg of perigee: 271.0258 deg
Mean anomaly: 089.0244 deg
Mean motion: 14.29558471 rev/day
Decay rate: 1.19e-06 rev/day^2
Epoch rev: 40067
Checksum: 323
Satellite: SO-50
Catalog number: 27607
Epoch time: 09154.86697272
Element set: 0901
Inclination: 064.5595 deg
RA of node: 065.5448 deg
Eccentricity: 0.0068880
Arg of perigee: 208.6257 deg
Mean anomaly: 151.1025 deg
Mean motion: 14.71438477 rev/day
Decay rate: -1.49e-06 rev/day^2
Epoch rev: 34671
Checksum: 336
Satellite: CO-55
Catalog number: 27844
Epoch time: 09154.53994926
Element set: 0593
Inclination: 098.7119 deg
RA of node: 163.8980 deg
Eccentricity: 0.0009705
Arg of perigee: 177.8073 deg
Mean anomaly: 182.3146 deg
Mean motion: 14.20640184 rev/day
Decay rate: 3.3e-07 rev/day^2
Epoch rev: 30732
Checksum: 329
Satellite: CO-57
Catalog number: 27848
Epoch time: 09154.51557780
Element set: 0540
Inclination: 098.7141 deg
RA of node: 162.9359 deg
Eccentricity: 0.0009399
Arg of perigee: 182.6112 deg
Mean anomaly: 177.5015 deg
Mean motion: 14.20441651 rev/day
Decay rate: 3.0e-08 rev/day^2
Epoch rev: 30728
Checksum: 312
Satellite: AO-51
Catalog number: 28375
Epoch time: 09154.97656908
Element set: 0405
Inclination: 098.0522 deg
RA of node: 165.3510 deg
Eccentricity: 0.0083466
Arg of perigee: 164.5857 deg
Mean anomaly: 195.7898 deg
Mean motion: 14.40643634 rev/day
Decay rate: 1.2e-07 rev/day^2
Epoch rev: 25905
Checksum: 336
Satellite: CO-56
Catalog number: 28941
Epoch time: 09154.88909837
Element set: 0132
Inclination: 098.1343 deg
RA of node: 326.8395 deg
Eccentricity: 0.0089848
Arg of perigee: 182.4635 deg
Mean anomaly: 177.6290 deg
Mean motion: 15.82740817 rev/day
Decay rate: 6.0236e-04 rev/day^2
Epoch rev: 18514
Checksum: 361
Satellite: GENESAT1
Catalog number: 29655
Epoch time: 09154.72390321
Element set: 0730
Inclination: 040.0249 deg
RA of node: 267.6647 deg
Eccentricity: 0.0002187
Arg of perigee: 339.9251 deg
Mean anomaly: 020.1479 deg
Mean motion: 15.65364195 rev/day
Decay rate: 9.331e-05 rev/day^2
Epoch rev: 14036
Checksum: 297
Satellite: CP3
Catalog number: 31129
Epoch time: 09155.14913900
Element set: 973
Inclination: 097.9896 deg
RA of node: 208.8493 deg
Eccentricity: 0.0101837
Arg of perigee: 326.2965 deg
Mean anomaly: 033.1781 deg
Mean motion: 14.52134661 rev/day
Decay rate: 9.1e-07 rev/day^2
Epoch rev: 11299
Checksum: 318
Satellite: CO-65
Catalog number: 32785
Epoch time: 09155.22476700
Element set: 382
Inclination: 097.9451 deg
RA of node: 219.2976 deg
Eccentricity: 0.0016272
Arg of perigee: 075.1248 deg
Mean anomaly: 285.1760 deg
Mean motion: 14.81487293 rev/day
Decay rate: 2.16e-06 rev/day^2
Epoch rev: 5952
Checksum: 329
Satellite: KKS-1
Catalog number: 33493
Epoch time: 09155.52971484
Element set: 443
Inclination: 098.0557 deg
RA of node: 267.6836 deg
Eccentricity: 0.0018872
Arg of perigee: 284.3677 deg
Mean anomaly: 075.5437 deg
Mean motion: 14.80676737 rev/day
Decay rate: 2.11e-06 rev/day^2
Epoch rev: 1959
Checksum: 347
Satellite: SOHLA-1
Catalog number: 33496
Epoch time: 09155.44876675
Element set: 404
Inclination: 098.0369 deg
RA of node: 264.9556 deg
Eccentricity: 0.0006242
Arg of perigee: 334.8672 deg
Mean anomaly: 025.2226 deg
Mean motion: 14.69435631 rev/day
Decay rate: 3.2e-07 rev/day^2
Epoch rev: 1940
Checksum: 311
/EX
SB KEPS @ AMSAT $ORB09155.W
Orbital Elements 09155.WEATHER
HR AMSAT ORBITAL ELEMENTS FOR WEATHER SATELLITES
FROM WA5QGD FORT WORTH,TX June 4, 2009
Send Subscribe/unsubscribe to KEPS at
http://www.amsat.org/mailman/listinfo/keps
BID: ORB09155.W
TO ALL RADIO AMATEURS BT
Satellite: NOAA-10
Catalog number: 16969
Epoch time: 09154.62825791
Element set: 0636
Inclination: 098.6916 deg
RA of node: 181.3493 deg
Eccentricity: 0.0011429
Arg of perigee: 235.3790 deg
Mean anomaly: 124.6314 deg
Mean motion: 14.27387074 rev/day
Decay rate: -1.01e-06 rev/day^2
Epoch rev: 18157
Checksum: 319
Satellite: NOAA-11
Catalog number: 19531
Epoch time: 09154.77130925
Element set: 0648
Inclination: 098.7840 deg
RA of node: 244.9309 deg
Eccentricity: 0.0012040
Arg of perigee: 143.6100 deg
Mean anomaly: 216.5881 deg
Mean motion: 14.14896023 rev/day
Decay rate: -1.79e-06 rev/day^2
Epoch rev: 06762
Checksum: 299
Satellite: NOAA-12
Catalog number: 21263
Epoch time: 09154.98246763
Element set: 0156
Inclination: 098.7712 deg
RA of node: 163.0372 deg
Eccentricity: 0.0012078
Arg of perigee: 179.9811 deg
Mean anomaly: 180.1372 deg
Mean motion: 14.25580821 rev/day
Decay rate: 1.7e-07 rev/day^2
Epoch rev: 93851
Checksum: 306
Satellite: MET-3/5
Catalog number: 21655
Epoch time: 09154.93060965
Element set: 0649
Inclination: 082.5517 deg
RA of node: 215.8562 deg
Eccentricity: 0.0012488
Arg of perigee: 210.9664 deg
Mean anomaly: 149.0723 deg
Mean motion: 13.17019111 rev/day
Decay rate: 5.1e-07 rev/day^2
Epoch rev: 85588
Checksum: 313
Satellite: MET-2/21
Catalog number: 22782
Epoch time: 09153.64408719
Element set: 473
Inclination: 082.5474 deg
RA of node: 193.5428 deg
Eccentricity: 0.0023307
Arg of perigee: 031.2708 deg
Mean anomaly: 328.9835 deg
Mean motion: 13.83634777 rev/day
Decay rate: -1.21e-06 rev/day^2
Epoch rev: 79559
Checksum: 332
Satellite: OKEAN-4
Catalog number: 23317
Epoch time: 09154.73745541
Element set: 0926
Inclination: 082.5389 deg
RA of node: 347.0394 deg
Eccentricity: 0.0023695
Arg of perigee: 051.4469 deg
Mean anomaly: 308.8855 deg
Mean motion: 14.82700276 rev/day
Decay rate: 1.51e-06 rev/day^2
Epoch rev: 79037
Checksum: 328
Satellite: NOAA-14
Catalog number: 23455
Epoch time: 09154.65311087
Element set: 0641
Inclination: 098.9094 deg
RA of node: 232.3798 deg
Eccentricity: 0.0008741
Arg of perigee: 225.2665 deg
Mean anomaly: 134.7802 deg
Mean motion: 14.13761762 rev/day
Decay rate: -2.43e-06 rev/day^2
Epoch rev: 74401
Checksum: 305
Satellite: NOAA-15
Catalog number: 25338
Epoch time: 09154.92054847
Element set: 0950
Inclination: 098.5837 deg
RA of node: 144.4194 deg
Eccentricity: 0.0011768
Arg of perigee: 095.8115 deg
Mean anomaly: 264.4397 deg
Mean motion: 14.24764355 rev/day
Decay rate: 2.28e-06 rev/day^2
Epoch rev: 57488
Checksum: 348
